Weather observations for the past three days for
Imperial, Imperial Municipal Airport
Imperial (Metric)
Date Time (mdt) Wind (mph) Vis. (mi.) Weather Sky Cond. Temperature (ºF) Relative Humidity Wind Chill (°F) Heat Index (°F) Pressure Precipitation (in)
Air Dwpt 6 hour altimeter (in) sea level (mb) 1 hr 3 hr 6 hr
Max. Min.
24 18:53 E 5 10.00 Fair CLR 91 54 28% 89 29.8 1005.1
24 17:53 SW 7 10.00 Fair CLR 97 45 105.1 91 17% 93 29.8 1004.4
24 16:53 S 25 G 46 6.00 Mostly Cloudy with Haze and Breezy FEW080 SCT100 BKN120 93.9 43 17% 90 29.8 1005.1
24 15:53 Calm 10.00 Thunderstorm in Vicinity FEW065 96.1 48 19% 93 29.82 1005.8
24 14:53 NE 7 10.00 Fair CLR 100 46.9 16% 96 29.81 1004.8
24 13:53 NE 7 10.00 Fair CLR 104 48.9 16% 101 29.82 1004.9
24 12:53 Vrbl 5 10.00 Fair CLR 100.9 51.1 19% 98 29.84 1005.6
24 11:53 NW 8 10.00 Fair CLR 100 48.9 100 71.1 18% 97 29.85 1006.0
24 10:53 N 6 10.00 Fair CLR 99 57 25% 98 29.87 1006.4
24 09:53 Vrbl 3 10.00 Fair CLR 93.9 57 29% 93 29.87 1006.5
24 08:53 W 12 G 21 10.00 Fair CLR 87.1 57 36% 86 29.88 1007.1
24 07:53 SW 8 10.00 Fair CLR 77 60.1 56% 79 29.88 1007.5
24 06:53 W 13 9.00 Fair CLR 71.1 59 66% 29.87 1007.1
24 05:53 S 8 10.00 Fair CLR 72 59 79 64 64% 29.86 1006.7
24 04:53 S 7 10.00 Fair CLR 66.9 57.9 73% 29.86 1006.6
24 03:53 S 5 10.00 Fair CLR 66.9 57 71% 29.86 1006.9
24 02:53 SW 6 10.00 Fair CLR 69.1 57 66% 29.87 1006.9
24 01:53 SW 6 10.00 Fair CLR 72 57 59% 29.88 1007.2
24 00:53 W 13 10.00 Fair CLR 77 57.9 52% 79 29.9 1007.8
23 23:53 S 13 10.00 Fair CLR 79 57 100 79 47% 80 29.9 1007.7
23 22:53 S 15 10.00 Fair CLR 82 55.9 41% 82 29.89 1007.5
23 21:53 S 14 10.00 Fair CLR 84.9 54 35% 83 29.88 1007.2
23 20:53 S 16 G 28 10.00 Fair CLR 87.1 50 28% 84 29.86 1006.7
23 19:53 S 7 10.00 Fair CLR 89.1 48 24% 86 29.85 1006.5
23 18:53 S 8 10.00 Fair CLR 97 46 17% 93 29.86 1006.9
23 17:53 S 9 10.00 Fair CLR 100 45 102.9 97 15% 96 29.86 1007.2
23 16:53 S 8 10.00 Fair CLR 100.9 46 15% 97 29.87 1007.5
23 15:53 S 9 G 25 10.00 Fair CLR 100.9 46.9 16% 97 29.89 1007.9
23 14:53 W 6 10.00 Fair CLR 100 45 15% 96 29.9 1008.5
23 13:53 S 13 G 23 10.00 Fair CLR 100.9 45 15% 97 29.92 1008.9
23 12:53 SW 16 G 24 10.00 Fair CLR 100 51.1 19% 97 29.94 1009.7
23 11:53 SW 14 G 31 10.00 Fair CLR 97 53.1 97 63 23% 95 29.97 1010.7
23 10:53 S 16 G 30 10.00 Fair CLR 93.9 55 27% 92 29.98 1011.3
23 09:53 SW 13 G 23 10.00 Fair CLR 89.1 55 31% 87 30 1012.1
23 08:53 SW 14 G 23 10.00 Fair CLR 82.9 55 38% 82 30.01 1012.5
23 07:53 SW 17 G 28 10.00 Fair CLR 78.1 59 52% 79 30.02 1012.6
23 06:53 SW 7 10.00 Fair CLR 68 55 63% 30.02 1013.2
23 05:53 SW 9 10.00 Fair CLR 63 53.1 69.1 61 70% 30.02 1013.0
23 04:53 SW 6 10.00 Fair CLR 62.1 53.1 73% 30.02 1013.1
23 03:53 SW 8 10.00 Fair CLR 64 52 65% 30.03 1013.3
23 02:53 S 7 10.00 Fair CLR 63 54 73% 30.03 1013.6
23 01:53 SW 6 10.00 Fair CLR 66 55 68% 30.05 1013.8
23 00:53 S 5 10.00 Fair CLR 64.9 57.9 78% 30.04 1013.7
22 23:53 S 6 10.00 Fair CLR 66.9 57.9 91 66.9 73% 30.05 1014.1
22 22:53 S 7 10.00 Fair CLR 70 57.9 66% 30.05 1014.0
22 21:53 SE 3 10.00 Fair CLR 70 57.9 66% 30.03 1013.7
22 20:53 SE 7 10.00 Fair CLR 73 57.9 59% 30.01 1013.2
22 19:53 SE 6 10.00 Fair CLR 82 59 46% 82 30 1012.5
22 18:53 Vrbl 5 10.00 Fair CLR 86 53.1 32% 84 30 1012.1
22 17:53 Vrbl 3 10.00 Fair CLR 91 51.1 91 82.9 26% 88 30 1011.9
22 16:53 NW 6 10.00 Fair CLR 91 52 26% 88 30 1012.2
22 15:53 Vrbl 6 10.00 Fair CLR 91 54 28% 89 30.01 1012.5
22 14:53 NW 7 10.00 Fair CLR 89.1 54 30% 87 30.02 1012.8
22 13:53 NW 12 G 22 10.00 Fair CLR 89.1 55.9 33% 87 30.03 1013.0
22 12:53 N 9 G 23 10.00 Fair CLR 88 54 31% 86 30.03 1013.1
22 11:53 N 16 G 26 10.00 Fair CLR 84.9 53.1 86 69.1 33% 83 30.03 1013.2
22 10:53 N 16 G 28 10.00 Fair CLR 82.9 57.9 43% 83 30.02 1013.2
22 09:53 N 15 10.00 Fair CLR 79 61 54% 80 30.03 1013.4
22 08:53 NW 14 10.00 Fair CLR 75 63 66% 77 30.02 1013.1
22 07:53 NW 14 G 28 10.00 Mostly Cloudy BKN014 BKN024 70 62.1 76% 30.01 1012.6
22 06:53 NW 10 10.00 Overcast OVC011 70 64 82% 29.99 1011.5
22 05:53 NW 12 G 22 10.00 Overcast BKN010 OVC014 69.1 64.9 71.1 66 87% 29.96 1010.7
22 04:53 N 10 9.00 Overcast OVC005 66.9 64.9 93% 29.95 1010.3
22 03:53 NW 8 10.00 Mostly Cloudy BKN007 66.9 64.9 93% 29.93 1009.6
22 02:53 N 13 10.00 Fair CLR 68 64.9 90% 29.91 1008.8
22 01:53 Calm 10.00 Fair CLR 69.1 64.9 87% 29.94 1009.7
22 00:53 NW 18 G 26 10.00 A Few Clouds FEW011 FEW100 70 66.9 90% 29.94 1010.0
21 23:53 NE 6 10.00 Fair CLR 70 64.9 93.9 69.1 84% 29.88 1008.0
21 22:53 N 8 10.00 Fair CLR 71.1 66 84% 29.89 1008.2
21 21:53 E 8 10.00 Fair CLR 73 64.9 76% 29.88 1008.2
21 20:53 E 5 10.00 Fair CLR 75.9 64 67% 78 29.88 1008.1
21 19:53 SE 14 10.00 Fair CLR 82.9 63 51% 84 29.86 1007.2
Date Time (mdt) Wind (mph) Vis. (mi.) Weather Sky Cond. Air Dwpt Max. Min. Relative Humidity Wind Chill (°F) Heat Index (°F) altimeter (in) sea level (mb) 1 hr 3 hr 6 hr
6 hour
Temperature (ºF) Pressure Precipitation (in)